{"data":{"norad_id":63213,"epoch":"2026-05-24T23:05:56.246784Z","epoch_age_seconds":88946,"freshness":"FRESH","line1":"1 63213U 25052D   26144.96245656  .00016310  00000+0  50285-3 0  9992","line2":"2 63213  97.3932  41.3275 0003126 147.1092 213.0346 15.33670943 66550","mean_motion":15.33670943,"eccentricity":0.0003126,"inclination_deg":97.3932,"raan_deg":41.3275,"arg_perigee_deg":147.1092,"mean_anomaly_deg":213.0346,"bstar":0.00050285,"rev_number":6655,"period_min":93.892370235771,"perigee_km":462.73188530263,"apogee_km":467.01013391023,"semimajor_km":6843.0080096064,"source":"CELESTRAK","updated_at":"2026-05-25T13:38:23.296566Z"}}